Flag for Romania Weather past 2 weeks in Oradea, Romania

Now
48 °F

Light rain. Clear.


Feels Like: 43 °F
Forecast: 41 / 68 °F
Wind: 14 mph from Northeast

Location: Oradea Airport


UV Index: 0 (Low)

Visibility: N/A


Pressure: 29.98 "Hg

Humidity: 82%

Dew point: 43 °F

Location of OradeaLocation

Historic Weather in Oradea

°F

Oradea temperature yesterday

Maximum temperature yesterday: 55 °F (at 7:00 PM)
Minimum temperature yesterday: 39 °F (at 6:00 AM)
Average temperature yesterday: 48 °F

Past Weeks' High & Low Weather Summary

 TemperatureHumidityPressure
High68 °F (Apr 3, 2:30 PM)100% (Apr 3, 5:00 AM)30.12 "Hg (Apr 3, 5:00 AM)
Low34 °F (Apr 10, 7:00 AM)37% (Apr 2, 3:30 PM)29.77 "Hg (Apr 5, 5:00 AM)
Average52 °F79%29.96 "Hg
* Reported Apr 2 8:00 AM — Apr 17 8:30 AM, Oradea, Weather by CustomWeather, © 2014

Note: Actual official high and low records may vary slightly from our data, if they occured in-between our weather recording intervals... More about our weather records

Advertising

Historic Weather Conditions — Data for Previous 24 hours

 ConditionsComfort  
Time TempWeatherWind HumidityBarometerVisibility
8:30 AM
Apr 17
48 °FSunny.12 mph76%29.98 "Hg10 mi
8:00 AM48 °FLight rain. Passing clouds.14 mph76%29.95 "HgN/A
7:30 AM46 °FLight rain. Clear.14 mph82%29.95 "HgN/A
7:00 AM46 °FLight rain. Clear.14 mph82%29.95 "HgN/A
6:30 AM46 °FSprinkles. Passing clouds.12 mph82%29.95 "HgN/A
6:00 AM46 °FPassing clouds.12 mph82%29.98 "HgN/A
5:30 AM46 °FPassing clouds.12 mph82%29.98 "HgN/A
5:00 AM46 °FClear.12 mph82%29.98 "Hg10 mi
4:00 AM46 °FPassing clouds.14 mph87%29.98 "HgN/A
3:00 AM46 °FSprinkles. Overcast.14 mph87%30.01 "HgN/A
2:00 AM45 °FLight rain. Mostly cloudy.12 mph100%30.01 "HgN/A
1:00 AM46 °FLight rain. Passing clouds.14 mph87%30.01 "HgN/A
12:00 AM48 °FSprinkles. Passing clouds.14 mph76%30.01 "HgN/A
11:00 PM
Apr 16
52 °FMostly cloudy.12 mph54%30.01 "HgN/A
10:30 PM52 °FMostly cloudy.14 mph54%30.01 "HgN/A
10:00 PM52 °FClear.14 mph54%30.01 "Hg10 mi
9:30 PM52 °FPassing clouds.14 mph50%30.01 "HgN/A
9:00 PM52 °FSunny.14 mph50%29.98 "Hg10 mi
8:00 PM54 °FSunny.14 mph47%29.98 "Hg10 mi
7:30 PM54 °FSunny.16 mph51%29.98 "Hg10 mi
7:00 PM55 °FPassing clouds.14 mph51%29.98 "HgN/A
6:30 PM54 °FPassing clouds.12 mph58%29.98 "HgN/A
6:00 PM54 °FPartly sunny.7 mph63%29.98 "HgN/A
5:30 PM52 °FScattered clouds.7 mph67%29.98 "HgN/A
5:00 PM52 °FPartly sunny.9 mph67%30.01 "HgN/A
4:30 PM50 °FSprinkles. Partly sunny.12 mph71%29.98 "HgN/A
4:00 PM52 °FScattered clouds.12 mph62%30.01 "HgN/A
3:30 PM52 °FSprinkles. Partly sunny.12 mph67%29.98 "HgN/A
3:00 PM54 °FPassing clouds.14 mph58%29.98 "HgN/A
2:30 PM54 °FPassing clouds.14 mph58%30.01 "HgN/A
2:00 PM54 °FPassing clouds.14 mph63%30.01 "HgN/A
1:30 PM54 °FSunny.14 mph67%30.01 "Hg10 mi
1:00 PM52 °FPassing clouds.12 mph67%30.04 "HgN/A
12:30 PM50 °FSunny.14 mph76%30.04 "Hg10 mi
12:00 PM50 °FSunny.14 mph76%30.01 "Hg10 mi
11:30 AM46 °FSunny.14 mph82%30.04 "Hg10 mi
11:00 AM46 °FPassing clouds.12 mph82%30.04 "HgN/A
10:30 AM45 °FPassing clouds.12 mph81%30.04 "HgN/A
10:00 AM45 °FSunny.9 mph81%30.04 "Hg10 mi
9:30 AM41 °FBroken clouds.12 mph93%30.01 "HgN/A
9:00 AM41 °FSunny.9 mph93%30.01 "Hg10 mi
Weather by CustomWeather, © 2014

See weather overview